HG8GL-6 Weather Reports


time (UTC)temp
C
wind
direction
speed
KPH
gust
KPH
rain 1hr
cm
rain 24hr
cm
rain mn
cm
humidity
%
barometer
mb
20260504220413 13 169 0.0 0.0 0.00 0.00 0.00 40 1017.0
20260504215343 13 167 0.0 0.0 0.00 0.00 0.00 40 1016.0
20260504214343 13 162 0.0 0.0 0.00 0.00 0.00 39 1016.0
20260504213343 13 158 0.0 0.0 0.00 0.00 0.00 39 1016.0
20260504212343 13 158 0.0 0.0 0.00 0.00 0.00 39 1016.0
20260504211343 13 158 0.0 0.0 0.00 0.00 0.00 39 1016.0
20260504210343 13 158 0.0 0.0 0.00 0.00 0.00 38 1016.0
20260504205343 14 158 0.0 0.0 0.00 0.00 0.00 37 1016.0
20260504204343 14 158 0.0 0.0 0.00 0.00 0.00 37 1016.0
20260504203343 14 158 0.0 0.0 0.00 0.00 0.00 37 1016.0
20260504202343 14 158 0.0 0.0 0.00 0.00 0.00 37 1016.0
20260504201313 14 158 0.0 0.0 0.00 0.00 0.00 37 1016.0
20260504200243 15 158 0.0 0.0 0.00 0.00 0.00 37 1016.0
20260504195213 15 158 0.0 0.0 0.00 0.00 0.00 36 1016.0
20260504194213 15 158 0.0 0.0 0.00 0.00 0.00 35 1016.0
20260504193213 15 158 0.0 0.0 0.00 0.00 0.00 35 1016.0
20260504192213 16 158 0.0 0.0 0.00 0.00 0.00 35 1016.0
20260504191213 16 158 0.0 0.0 0.00 0.00 0.00 34 1016.0
20260504190213 16 158 0.0 0.0 0.00 0.00 0.00 34 1016.0
20260504185213 17 158 0.0 0.0 0.00 0.00 0.00 33 1016.0
20260504184213 17 158 0.0 0.0 0.00 0.00 0.00 31 1016.0
20260504183213 18 165 0.0 0.0 0.00 0.00 0.00 30 1015.0
20260504182213 18 158 0.0 0.0 0.00 0.00 0.00 28 1016.0
20260504181213 19 158 0.0 0.0 0.00 0.00 0.00 27 1016.0
20260504180213 20 158 0.0 0.0 0.00 0.00 0.00 26 1016.0
20260504175213 20 163 0.0 0.0 0.00 0.00 0.00 26 1015.0
20260504174143 21 158 0.0 0.0 0.00 0.00 0.00 25 1015.0
20260504173143 21 158 0.0 0.0 0.00 0.00 0.00 25 1015.0
20260504172142 22 158 0.0 0.0 0.00 0.00 0.00 24 1015.0
20260504171112 23 158 0.0 0.0 0.00 0.00 0.00 23 1015.0
20260504150712 27 147 0.0 0.0 0.00 0.00 0.00 20 1016.0
20260504140512 27 145 0.0 0.0 0.00 0.00 0.00 21 1016.0
20260504130342 27 138 0.0 0.0 0.00 0.00 0.00 21 1017.0
20260504120112 27 158 0.0 0.0 0.00 0.00 0.00 22 1017.0
20260504081341 22 154 0.0 0.0 0.00 0.00 0.00 32 1020.0
20260504080311 22 168 0.0 0.0 0.00 0.00 0.00 32 1020.0
20260504070111 18 181 0.0 0.0 0.00 0.00 0.00 40 1020.0
20260504045741 7 158 0.0 0.0 0.00 0.00 0.00 66 1020.0
20260504044711 7 158 0.0 0.0 0.00 0.00 0.00 66 1020.0
20260504043611 6 221 0.0 0.0 0.00 0.00 0.00 67 1020.0
20260504042541 6 248 0.0 0.0 0.00 0.00 0.00 67 1019.9
20260504041541 6 248 0.0 0.0 0.00 0.00 0.00 66 1019.0
20260504040511 6 248 0.0 0.0 0.00 0.00 0.00 66 1019.0
20260504035511 6 248 0.0 0.0 0.00 0.00 0.00 66 1019.0
20260504034441 6 158 0.0 0.0 0.00 0.00 0.00 65 1019.0
20260504033411 6 158 0.0 0.0 0.00 0.00 0.00 65 1020.0
20260504032411 6 158 0.0 0.0 0.00 0.00 0.00 63 1019.0
20260504031341 6 158 0.0 0.0 0.00 0.00 0.00 63 1019.0
20260504030341 6 248 0.0 0.0 0.00 0.00 0.00 62 1020.0
20260504025341 6 248 0.0 0.0 0.00 0.00 0.00 61 1019.0
20260504024311 6 248 0.0 0.0 0.00 0.00 0.00 60 1019.0
20260504023241 7 248 0.0 0.0 0.00 0.00 0.00 58 1020.0
20260504022211 7 248 0.0 0.0 0.00 0.00 0.00 57 1019.0
20260504021141 7 248 0.0 0.0 0.00 0.00 0.00 56 1019.0
20260504020111 7 248 0.0 0.0 0.00 0.00 0.00 56 1019.0
20260504015111 7 202 0.0 0.0 0.00 0.00 0.00 56 1019.0
20260504014111 7 248 0.0 0.0 0.00 0.00 0.00 55 1019.0
20260504013111 7 248 0.0 0.0 0.00 0.00 0.00 54 1019.0
20260504012111 7 248 0.0 0.0 0.00 0.00 0.00 53 1019.0
20260504011111 7 248 0.0 0.0 0.00 0.00 0.00 52 1019.0
20260504010110 8 158 0.0 0.0 0.00 0.00 0.00 52 1019.0
20260504005110 8 158 0.0 0.0 0.00 0.00 0.00 51 1019.0
20260504004110 8 158 0.0 0.0 0.00 0.00 0.00 51 1019.0
20260504003110 8 202 0.0 0.0 0.00 0.00 0.00 49 1019.0
20260504002110 9 225 0.0 0.0 0.00 0.00 0.00 49 1019.0
20260504001110 9 225 0.0 0.0 0.00 0.00 0.00 49 1019.0
20260504000040 10 225 0.0 0.0 0.00 0.00 0.00 48 1020.0
20260503235010 10 225 0.0 0.0 0.00 0.00 0.00 48 1019.0
20260503233940 10 246 0.0 0.0 0.00 0.00 0.00 47 1019.0
20260503232940 10 227 0.0 0.0 0.00 0.00 0.00 47 1019.0
20260503231910 10 224 0.0 0.0 0.00 0.00 0.00 47 1019.0
20260503230840 10 210 0.0 0.0 0.00 0.00 0.00 47 1019.0
20260503225840 11 209 0.0 0.0 0.00 0.00 0.00 47 1019.0
20260503224810 11 213 0.0 0.0 0.00 0.00 0.00 47 1019.0
20260503223740 11 233 0.0 0.0 0.00 0.00 0.00 46 1020.0
20260503222740 11 202 0.0 0.0 0.00 0.00 0.00 46 1020.0
20260503221710 11 229 0.0 0.0 0.00 0.00 0.00 46 1019.0